#timestamp,LO_Frequency,Hit,StdDev 
1514548815.4,286047010.0,N
1514548835.2,286047012.1,N
1514548855.0,286047011.3,N
1514548855.9,286047011.3,N
1514548875.8,286047012.7,N
1514548895.6,286047015.1,Y
1514548915.4,286047007.5,P
1514548935.3,286047006.7,P
1514548955.1,286047009.2,P
1514548975.8,286047010.0,Y
1514548995.7,286047002.1,P
1514549015.5,286047005.1,N
1514549035.3,286047004.3,N
1514549055.2,286047005.9,N
1514549075.9,286047006.9,Y
1514549095.7,286047004.9,P
1514549115.6,286047002.4,P
1514549135.4,286047001.2,N
1514549155.2,286046996.9,N
1514549175.1,286046999.5,N
1514549176.0,286046999.5,N
1514549195.8,286046999.3,N
1514549215.6,286046998.3,N
1514549235.5,286046997.7,N
1514549255.3,286046999.2,N
1514549275.1,286047002.3,N
1514549295.8,286047004.2,N
1514549315.7,286047003.6,N
1514549335.5,286047002.6,N
1514549355.3,286047001.0,N
1514549375.2,286046996.5,N
1514549395.9,286046994.9,N
1514549415.7,286046997.5,N
1514549435.6,286047000.0,N
1514549455.4,286047000.2,N
1514549475.2,286046998.5,N
1514549495.1,286046997.6,N
1514549496.0,286046997.6,N
1514549515.8,286046994.9,N
1514549535.6,286046991.8,N
1514549555.5,286046992.0,N
1514549575.3,286046989.5,Y
1514549595.1,286046992.4,P
1514549615.9,286046991.4,N
1514549635.7,286046991.1,N
1514549655.5,286046990.6,N
1514549675.4,286046989.2,Y
1514549695.2,286046998.8,P
1514549715.0,286046995.4,N
1514549715.9,286046995.4,N
1514549735.8,286046994.6,N
1514549755.6,286046990.5,Y
1514549775.4,286046993.4,P
1514549795.3,286046995.8,P
1514549815.1,286046996.8,P
1514549816.0,286046996.8,N
1514549835.8,286046999.1,N
1514549855.6,286046999.8,N
1514549875.5,286047001.5,N
1514549895.3,286047003.8,N
1514549915.1,286047002.8,N
1514549935.9,286047001.8,N
1514549955.7,286046998.1,N
1514549975.5,286046998.1,N
1514549995.4,286047002.2,N
1514550015.2,286047001.3,N
1514550035.0,286047002.7,N
1514550035.9,286047002.7,N
1514550055.8,286047001.1,N
1514550075.6,286046997.2,N
1514550095.4,286046998.6,N
1514550115.2,286047000.5,N
1514550135.1,286047003.4,N
1514550136.0,286047003.4,N
1514550155.8,286047005.0,N
1514550175.6,286047005.2,N
1514550195.5,286047005.1,N
1514550215.3,286047005.5,N
1514550235.1,286047005.9,N
1514550255.9,286047001.3,N
1514550275.7,286047003.0,N
1514550295.5,286047005.8,N
1514550315.4,286047007.1,N
1514550335.2,286047007.9,N
1514550355.0,286047014.0,Y
1514550355.9,286047014.0,P
1514550375.8,286047013.1,N
1514550395.6,286047015.0,N
1514550415.4,286047017.9,Y
1514550435.3,286047006.1,P
1514550455.1,286047008.9,P
1514550456.0,286047008.9,P
1514550475.8,286047010.6,Y
1514550495.7,286047006.1,P
1514550515.5,286047012.4,P
1514550535.3,286047013.5,P
1514550555.2,286047014.5,Y
1514550575.9,286047007.6,P
1514550595.7,286047009.2,P
1514550615.6,286047007.1,P
1514550635.4,286047005.6,Y
1514550655.2,286046999.9,P
1514550675.1,286047002.4,N
1514550676.0,286047002.4,N
1514550695.8,286047000.8,N
1514550715.6,286046996.9,N
1514550735.5,286047003.3,N
1514550755.3,286047007.2,N
1514550775.1,286047003.5,N
1514550795.9,286047004.8,N
1514550815.7,286047008.8,N
1514550835.5,286047007.3,N
1514550855.3,286047006.4,N
1514550875.2,286047001.8,N
1514550895.0,286047002.4,N
1514550895.9,286047002.4,N
1514550915.7,286047002.8,N
1514550935.6,286047001.0,N
1514550955.4,286046999.8,N
1514550975.2,286046995.7,N
1514550995.1,286046992.2,N
1514550996.0,286046992.2,N
1514551015.8,286046994.5,N
1514551035.6,286046999.3,N
1514551055.5,286046994.9,N
1514551075.3,286046992.8,N
1514551095.1,286046987.1,N
1514551115.9,286046987.7,N
1514551135.7,286046984.5,N
1514551155.5,286046981.8,N
1514551175.4,286046982.4,N
1514551195.2,286046984.3,N
1514551215.0,286046983.6,N
1514551215.9,286046983.6,N
1514551235.7,286046979.1,N
1514551255.6,286046979.6,N
1514551275.4,286046980.1,N
1514551295.2,286046978.2,N
1514551315.1,286046974.9,N
1514551316.0,286046974.9,N
1514551335.8,286046971.5,N
1514551355.6,286046969.9,N
1514551375.5,286046971.6,N
1514551395.3,286046969.9,N
1514551415.1,286046971.5,N
1514551435.9,286046970.0,N
1514551455.7,286046969.5,Y
1514551475.5,286046983.9,P
1514551495.4,286046983.2,P
1514551515.2,286046981.5,P
1514551535.0,286046984.4,Y
1514551535.9,286046984.4,P
1514551555.8,286046999.4,N
1514551575.6,286047001.6,N
1514551595.4,286047002.7,N
1514551615.3,286047000.0,N
1514551635.1,286046998.6,N
1514551636.0,286046998.6,N
1514551655.8,286046995.0,N
1514551675.7,286046995.8,N
1514551695.5,286046996.0,N
1514551715.3,286046992.6,N
1514551735.1,286046991.0,N
1514551755.9,286046991.2,N
1514551775.7,286046988.4,N
1514551795.5,286046987.7,N
1514551815.4,286046987.8,N
1514551835.2,286046987.9,N
1514551855.0,286046984.1,N
1514551855.9,286046984.1,N
1514551875.8,286046984.1,N
1514551895.6,286046983.1,N
1514551915.4,286046979.2,Y
1514551935.3,286046989.5,P
1514551955.1,286046994.8,P
1514551956.0,286046994.8,N
1514551975.8,286046994.9,N
1514551995.7,286046994.9,N
1514552015.5,286046996.6,N
1514552035.3,286046999.1,N
1514552055.2,286046999.2,N
1514552075.9,286046995.1,N
1514552095.7,286046994.1,N
1514552115.5,286046992.8,N
1514552135.4,286046990.8,Y
1514552155.2,286046995.7,P
1514552175.0,286046993.5,P
1514552175.9,286046993.5,P
1514552195.8,286046994.0,Y
1514552215.6,286047000.6,P
1514552235.4,286047001.4,N
1514552255.3,286047003.8,N
1514552275.1,286047002.5,N
1514552295.8,286047007.5,N
1514552315.7,286047009.2,N
1514552335.5,286047006.0,N
1514552355.3,286047002.9,N
1514552375.2,286047004.1,N
1514552395.9,286047000.1,N
